Location: Chuathbaluk
(61.5726°N, 159.2454°W)
Time: 16:38:17
(UTC+00:00)

ITAMSAT 1 - Pass Details

Date: 19 January 2021
Orbit: 784 x 796 km, 98.9° (Epoch: 05 March)

Event Time Altitude Azimuth Distance (km) Brightness Sun altitude
Rises 15:48:29 0° 23° (NNE) 3,291 11.2 -24.7°
Reaches altitude 10° 15:51:41 10° 43° (NE) 2,357 10.7 -24.3°
Maximum altitude 15:55:00 17° 83° (E) 1,918 10.6 -23.9°
Drops below altitude 10° 15:58:18 10° 123° (ESE) 2,349 10.9 -23.5°
Sets 16:01:28 0° 144° (SE) 3,274 11.4 -23.2°
